Location: Shepherdstown, WV
(39.4326°N, 77.8042°W)
Time: 04:22:17
(UTC-04:00)

Vanguard 1 - Pass Details

Date: 28 September 2021
Orbit: 653 x 3829 km, 34.2° (Epoch: 18 October)

Event Time Altitude Azimuth Distance (km) Brightness Sun altitude
Rises 00:26:04 0° 281° (WNW) 7,139 14.7 -51.8°
Reaches altitude 10° 00:30:29 10° 278° (W) 6,400 14.3 -52.0°
Enters shadow 00:44:02 45° 255° (WSW) 4,616 13.1 -52.5°
